Regional Weather Roundup
Issued by NWS

Home | Current Version | Previous Version | Graphics & Text | Print | Product List | Glossary On
Versions: 1 2 3 4 5 6 7 8 9 10 11 12 13 14 15 16 17 18 19 20 21 22 23 24 25 26 27 28 29 30 31 32 33 34 35 36 37 38 39 40 41 42 43 44 45 46 47 48 49 50
000
ASUS43 KOAX 211910
RWRNE

WEATHER ROUNDUP FOR NEBRASKA
NATIONAL WEATHER SERVICE OMAHA NE
200 PM CDT MON AUG 21 2017

NOTES: SATELLITE DATA IS BEING USED TO AUGMENT CLOUD COVER ABOVE
       12000 FEET.
       "FAIR" INDICATES FEW OR NO CLOUDS BELOW 12,000 FEET WITH NO
       SIGNIFICANT WEATHER AND/OR OBSTRUCTIONS TO VISIBILITY.


NEZ001>004-019>022-054>056-212000-
NEBRASKA PANHANDLE

CITY           SKY/WX    TMP DP  RH WIND       PRES   REMARKS
SCOTTSBLUFF    SUNNY     79  55  43 N16       30.12R
ALLIANCE       MOSUNNY   75  61  61 N20G28    30.10R
CHADRON        SUNNY     76  54  46 NE15      30.11R
GORDON         FAIR      72  60  65 N14G20    30.09R
KIMBALL        SUNNY     76  56  49 N16       30.15S
SIDNEY         SUNNY     79  59  50 N22       30.10R
$$

NEZ057>060-069>072-079>082-212000-
SOUTHWEST NEBRASKA

CITY           SKY/WX    TMP DP  RH WIND       PRES   REMARKS
NORTH PLATTE   SUNNY     85  70  60 E3        29.96R
IMPERIAL       SUNNY     85  63  47 NE6       29.98R
LEXINGTON      SUNNY     82  67  60 S9        29.95R
MCCOOK         MOSUNNY   83  64  52 S13       29.94F
OGALLALA       SUNNY     81  69  66 N10       30.00S
$$

NEZ005>010-023>029-035>040-094-212000-
NORTH CENTRAL NEBRASKA

CITY           SKY/WX    TMP DP  RH WIND       PRES   REMARKS
VALENTINE      CLOUDY    70  61  73 CALM      30.00S
AINSWORTH      CLOUDY    65  64  96 E5        30.01S
BROKEN BOW     SUNNY     84  69  60 N7        29.96R
O`NEILL        CLOUDY    69  65  86 N16G22    29.96F
ORD            SUNNY     83  68  60 VRB3      29.93R
THEDFORD       MOSUNNY   80  70  71 NE9       30.00R
$$

NEZ041-046>049-061>064-073>077-083>087-212000-
SOUTH CENTRAL NEBRASKA

CITY           SKY/WX    TMP DP  RH WIND       PRES   REMARKS
GRAND ISLAND   MOSUNNY   83  70  64 S13       29.94S
AURORA         CLOUDY    81  69  65 S13       29.94S
HASTINGS       CLOUDY    81  67  62 S12       29.95F
HEBRON         CLOUDY    83  69  62 S7        29.95F
HOLDREGE       CLOUDY    80  64  58 S16       29.96R
KEARNEY        MOSUNNY   81  69  67 S13       29.95S
YORK           CLOUDY    79  70  73 S12G18    29.94F
$$

NEZ011>018-030>034-042>045-212000-
NORTHEAST NEBRASKA

CITY           SKY/WX    TMP DP  RH WIND       PRES   REMARKS
NORFOLK        SUNNY     80  71  74 S15       29.91F
ALBION         SUNNY     82  73  76 S10       29.93S
BLAIR          CLOUDY    76  70  81 S14G22    29.96R
COLUMBUS       PTSUNNY   78  73  84 SE7       29.94S
FREMONT        CLOUDY    77  69  77 SE14      29.94S
TEKAMAH        PTSUNNY   78  69  73 S9        29.92F
WAYNE          SUNNY     78  75  91 S18G26    29.91S
$$

NEZ050>053-065>068-078-088>093-212000-
SOUTHEAST NEBRASKA

CITY           SKY/WX    TMP DP  RH WIND       PRES   REMARKS
LINCOLN        CLOUDY    80  73  79 SE15      29.95S
OMAHA EPPLEY   CLOUDY    78  68  71 S25       29.95F
BEATRICE       CLOUDY    81  69  68 SE12G21   29.97S
FALLS CITY     CLOUDY    80  75  84 S12       29.98S
NEBRASKA CITY  CLOUDY    75  75  99 S14       29.99S
PLATTSMOUTH    CLOUDY    73  68  84 SE15      29.97S
$$

NEZ044-045-051>053-067-212000-
OMAHA AREA

CITY           SKY/WX    TMP DP  RH WIND       PRES   REMARKS
OMAHA EPPLEY   CLOUDY    78  68  71 S25       29.95F
BLAIR          CLOUDY    76  70  81 S14G22    29.96R
FREMONT        CLOUDY    77  69  77 SE14      29.94S
MILLARD        PTSUNNY   78  71  79 SE13G22   29.96R
OFFUTT AFB     PTSUNNY   76  69  78 S15G24    29.96R
PLATTSMOUTH    CLOUDY    73  68  84 SE15      29.97S
WAHOO          FAIR      77  72  84 S16G22    29.95S
$$



USA.gov is the U.S. government's official web portal to all federal, state and local government web resources and services.